TDRS 11

Last updated on Sun Jun 21 2026 00:02:59 GMT+0000 (Coordinated Universal Time)

1 39070U 13004A 26171.35747513 .00000073 00000+0 00000+0 0 9997 2 39070 3.5252 31.3084 0005326 21.7113 169.8062 1.00270611 46727
UTC large
Height (km)
Speed (km/s)
/
Latitude / Longitude
Inclination (degrees)
Orbital Period (minutes)
Azimuth
Elevation
Range (km)
Doppler Factor

Next 0 passes for location: London (51.5072 / 0.1276)

No passes found over London.
TDRS 11